• în Republica Moldova
  • Lista ţărilor
  • Pe 7 zile
  • Temperatura apei
  • Hartă satelitară
  • Meteo pe hartă
  • Widget-uri
  • user-avatar
    Intrare

    Meteo pe oră la Kalgoorlie

    Astăzi, 18 Ianuarie, Miercuri

    Timp Temperatura Precipitaţii Vânt Presiune Umiditate
    00:00 +16°C° 0 mm 7 m/s 729 mmHg 76%
    01:00 +16°C° 0 mm 6 m/s 729 mmHg 77%
    02:00 +15°C° 0 mm 7 m/s 728 mmHg 78%
    03:00 +15°C° 0 mm 6 m/s 728 mmHg 78%
    04:00 +15°C° 0 mm 6 m/s 728 mmHg 79%
    05:00 +15°C° 0 mm 6 m/s 729 mmHg 79%
    06:00 +15°C° 0 mm 6 m/s 729 mmHg 78%
    07:00 +16°C° 0 mm 6 m/s 729 mmHg 77%
    08:00 +17°C° 0 mm 5 m/s 729 mmHg 71%
    09:00 +19°C° 0 mm 6 m/s 729 mmHg 67%
    10:00 +21°C° 0 mm 6 m/s 728 mmHg 64%
    11:00 +22°C° 0 mm 6 m/s 728 mmHg 60%
    12:00 +23°C° 0 mm 6 m/s 727 mmHg 57%
    13:00 +26°C° 0 mm 5 m/s 727 mmHg 55%
    14:00 +27°C° 0 mm 5 m/s 726 mmHg 52%
    15:00 +27°C° 0 mm 5 m/s 726 mmHg 51%
    16:00 +28°C° 0 mm 5 m/s 726 mmHg 51%
    17:00 +28°C° 0 mm 4 m/s 726 mmHg 50%
    18:00 +27°C° 0 mm 4 m/s 726 mmHg 55%
    19:00 +26°C° 0 mm 4 m/s 725 mmHg 59%
    20:00 +25°C° 0 mm 4 m/s 725 mmHg 63%
    21:00 +23°C° 0 mm 5 m/s 725 mmHg 66%
    22:00 +23°C° 0 mm 5 m/s 725 mmHg 68%
    23:00 +22°C° 0 mm 6 m/s 725 mmHg 71%

    Mâine, 19 Ianuarie, Joi

    Timp Temperatura Precipitaţii Vânt Presiune Umiditate
    00:00 +22°C° 0 mm 5 m/s 725 mmHg 73%
    01:00 +21°C° 0 mm 5 m/s 724 mmHg 74%
    02:00 +21°C° 0 mm 5 m/s 724 mmHg 76%
    03:00 +21°C° 0 mm 4 m/s 724 mmHg 77%
    04:00 +20°C° 0 mm 4 m/s 723 mmHg 79%
    05:00 +20°C° 0 mm 3 m/s 723 mmHg 80%
    06:00 +22°C° 0 mm 3 m/s 723 mmHg 75%
    07:00 +24°C° 0 mm 3 m/s 723 mmHg 70%
    08:00 +25°C° 0 mm 3 m/s 723 mmHg 64%
    09:00 +27°C° 0 mm 3 m/s 723 mmHg 59%
    10:00 +29°C° 0 mm 3 m/s 723 mmHg 54%
    11:00 +31°C° 0 mm 3 m/s 723 mmHg 48%
    12:00 +33°C° 0 mm 4 m/s 723 mmHg 45%
    13:00 +34°C° 0 mm 4 m/s 722 mmHg 41%
    14:00 +35°C° 0 mm 5 m/s 722 mmHg 38%
    15:00 +35°C° 0 mm 6 m/s 722 mmHg 37%
    16:00 +34°C° 0 mm 6 m/s 722 mmHg 35%
    17:00 +34°C° 0 mm 7 m/s 722 mmHg 34%
    18:00 +31°C° 0 mm 8 m/s 722 mmHg 41%
    19:00 +28°C° 0 mm 9 m/s 723 mmHg 48%
    20:00 +24°C° 0 mm 9 m/s 723 mmHg 54%
    21:00 +23°C° 0 mm 9 m/s 724 mmHg 53%
    22:00 +21°C° 0 mm 9 m/s 725 mmHg 53%
    23:00 +20°C° 0 mm 8 m/s 725 mmHg 52%

    Poimâine, 20 Ianuarie, Vineri

    Timp Temperatura Precipitaţii Vânt Presiune Umiditate
    00:00 +18°C° 0 mm 8 m/s 725 mmHg 54%
    01:00 +18°C° 0 mm 7 m/s 725 mmHg 57%
    02:00 +17°C° 0 mm 7 m/s 725 mmHg 59%
    03:00 +16°C° 0 mm 6 m/s 725 mmHg 63%
    04:00 +16°C° 0 mm 6 m/s 726 mmHg 68%
    05:00 +15°C° 0 mm 6 m/s 726 mmHg 72%
    06:00 +16°C° 0 mm 6 m/s 726 mmHg 68%
    07:00 +17°C° 0 mm 6 m/s 726 mmHg 64%
    08:00 +19°C° 0 mm 6 m/s 727 mmHg 60%
    09:00 +21°C° 0 mm 5 m/s 727 mmHg 51%
    10:00 +23°C° 0 mm 5 m/s 727 mmHg 43%
    11:00 +26°C° 0 mm 4 m/s 726 mmHg 34%
    12:00 +28°C° 0 mm 4 m/s 726 mmHg 32%
    13:00 +29°C° 0 mm 3 m/s 725 mmHg 29%
    14:00 +31°C° 0 mm 3 m/s 725 mmHg 27%
    15:00 +31°C° 0 mm 3 m/s 724 mmHg 26%
    16:00 +31°C° 0 mm 3 m/s 724 mmHg 25%
    17:00 +32°C° 0 mm 4 m/s 724 mmHg 25%
    18:00 +30°C° 0 mm 4 m/s 724 mmHg 26%
    19:00 +29°C° 0 mm 4 m/s 725 mmHg 28%
    20:00 +27°C° 0 mm 4 m/s 725 mmHg 29%
    21:00 +26°C° 0 mm 4 m/s 726 mmHg 31%
    22:00 +25°C° 0 mm 5 m/s 726 mmHg 33%
    23:00 +25°C° 0 mm 5 m/s 726 mmHg 35%

    21 Ianuarie, Sâmbătă

    Timp Temperatura Precipitaţii Vânt Presiune Umiditate
    00:00 +23°C° 0 mm 5 m/s 726 mmHg 44%
    01:00 +22°C° 0 mm 5 m/s 726 mmHg 52%
    02:00 +21°C° 0 mm 6 m/s 725 mmHg 60%
    03:00 +20°C° 0 mm 5 m/s 725 mmHg 66%
    04:00 +20°C° 0 mm 5 m/s 725 mmHg 72%
    05:00 +19°C° 0 mm 5 m/s 725 mmHg 77%
    06:00 +20°C° 0 mm 5 m/s 725 mmHg 72%
    07:00 +22°C° 0 mm 5 m/s 726 mmHg 66%
    08:00 +23°C° 0 mm 5 m/s 726 mmHg 60%
    09:00 +26°C° 0 mm 4 m/s 726 mmHg 52%
    10:00 +29°C° 0 mm 4 m/s 726 mmHg 43%
    11:00 +31°C° 0 mm 3 m/s 726 mmHg 35%
    12:00 +33°C° 0 mm 3 m/s 725 mmHg 31%
    13:00 +34°C° 0 mm 2 m/s 724 mmHg 27%
    14:00 +36°C° 0 mm 2 m/s 724 mmHg 22%
    15:00 +36°C° 0 mm 2 m/s 724 mmHg 22%
    16:00 +36°C° 0 mm 3 m/s 723 mmHg 21%
    17:00 +36°C° 0 mm 3 m/s 723 mmHg 20%
    18:00 +35°C° 0 mm 3 m/s 724 mmHg 22%
    19:00 +33°C° 0 mm 4 m/s 724 mmHg 24%
    20:00 +32°C° 0 mm 4 m/s 724 mmHg 27%
    21:00 +30°C° 0 mm 4 m/s 724 mmHg 32%
    22:00 +29°C° 0 mm 4 m/s 724 mmHg 38%
    23:00 +28°C° 0 mm 5 m/s 724 mmHg 43%

    22 Ianuarie, Duminică

    Timp Temperatura Precipitaţii Vânt Presiune Umiditate
    00:00 +27°C° 0 mm 4 m/s 724 mmHg 51%
    01:00 +27°C° 0 mm 3 m/s 723 mmHg 59%
    02:00 +26°C° 0 mm 3 m/s 723 mmHg 66%
    03:00 +25°C° 0 mm 3 m/s 723 mmHg 67%
    04:00 +25°C° 0 mm 3 m/s 723 mmHg 68%
    05:00 +24°C° 0 mm 3 m/s 723 mmHg 69%
    06:00 +26°C° 0 mm 3 m/s 724 mmHg 64%
    07:00 +27°C° 0 mm 3 m/s 724 mmHg 59%
    08:00 +29°C° 0 mm 4 m/s 725 mmHg 55%
    09:00 +32°C° 0 mm 4 m/s 725 mmHg 46%
    10:00 +34°C° 0 mm 4 m/s 724 mmHg 38%
    11:00 +36°C° 0 mm 4 m/s 724 mmHg 30%
    12:00 +37°C° 0 mm 5 m/s 724 mmHg 29%
    13:00 +38°C° 0 mm 6 m/s 723 mmHg 28%
    14:00 +38°C° 0 mm 7 m/s 723 mmHg 27%
    15:00 +38°C° 0 mm 6 m/s 723 mmHg 29%
    16:00 +36°C° 0 mm 6 m/s 723 mmHg 31%
    17:00 +35°C° 0 mm 6 m/s 723 mmHg 33%
    18:00 +34°C° 0,3 mm 5 m/s 723 mmHg 39%
    19:00 +33°C° 0,3 mm 4 m/s 723 mmHg 45%
    20:00 +30°C° 0,3 mm 4 m/s 723 mmHg 51%
    21:00 +30°C° 0,1 mm 3 m/s 723 mmHg 52%
    22:00 +30°C° 0,1 mm 2 m/s 724 mmHg 54%
    23:00 +29°C° 0,1 mm 2 m/s 724 mmHg 55%

    23 Ianuarie, Luni

    Timp Temperatura Precipitaţii Vânt Presiune Umiditate
    00:00 +28°C° 0 mm 3 m/s 724 mmHg 58%
    01:00 +27°C° 0 mm 5 m/s 724 mmHg 62%
    02:00 +26°C° 0 mm 6 m/s 724 mmHg 65%
    03:00 +23°C° 0 mm 6 m/s 724 mmHg 69%
    04:00 +22°C° 0 mm 6 m/s 725 mmHg 72%
    05:00 +20°C° 0 mm 7 m/s 725 mmHg 76%
    06:00 +21°C° 0 mm 7 m/s 726 mmHg 72%
    07:00 +21°C° 0 mm 7 m/s 726 mmHg 67%
    08:00 +22°C° 0 mm 7 m/s 727 mmHg 63%
    09:00 +24°C° 0 mm 7 m/s 727 mmHg 57%
    10:00 +26°C° 0 mm 7 m/s 727 mmHg 51%
    11:00 +28°C° 0 mm 6 m/s 727 mmHg 44%
    12:00 +30°C° 0 mm 6 m/s 727 mmHg 41%
    13:00 +32°C° 0 mm 6 m/s 727 mmHg 37%
    14:00 +33°C° 0 mm 5 m/s 727 mmHg 33%
    15:00 +33°C° 0 mm 6 m/s 727 mmHg 33%
    16:00 +33°C° 0 mm 6 m/s 727 mmHg 32%
    17:00 +33°C° 0 mm 6 m/s 727 mmHg 31%
    18:00 +32°C° 0 mm 6 m/s 728 mmHg 33%
    19:00 +29°C° 0 mm 7 m/s 729 mmHg 35%
    20:00 +27°C° 0 mm 8 m/s 729 mmHg 37%
    21:00 +26°C° 0 mm 8 m/s 730 mmHg 41%
    22:00 +23°C° 0 mm 9 m/s 730 mmHg 45%
    23:00 +21°C° 0 mm 10 m/s 731 mmHg 49%
    Arată mai mult